Location: B�rgermoos
(47.6500°N, 9.0667°E)
Time: 08:23:01
(UTC+00:00)

Vanguard 3 - Pass Details

Date: 05 August 2021
Orbit: 510 x 3260 km, 33.4° (Epoch: 23 September)

Event Time Altitude Azimuth Distance (km) Brightness Sun altitude
Rises 19:39:11 0° 265° (W) 6,008 12.5 -7.6°
Reaches altitude 10° 19:42:56 10° 260° (W) 5,304 12.0 -8.1°
Maximum altitude 19:58:31 45° 195° (SSW) 3,911 10.4 -10.2°
Enters shadow 20:14:45 14° 134° (SE) 5,728 10.7 -12.3°
